User: anonymous   Login
Location: Kitt Peak
(31.9639°N, 111.5992°W)
Time: 04:24:44
(UTC-07:00)
Language:

DOVE 4 - Orbit

View from above orbital plane
View from above orbital plane
View from above satellite
View from above satellite

Ground track
Ground track

The orbit data is extracted from the following two-line orbital elements,

1 39430U 13066Q   24261.14755995  .00013143  00000-0  21356-2 0  9996
2 39430  97.7171 129.9461 0137070 320.8955  38.2403 14.65108136576503
Epoch (UTC): 17 September 2024 03:32:29
Eccentricity: 0.0137070
inclination: 97.7171°
perigee height: 580 km
apogee height: 773 km
right ascension of ascending node: 129.9461°
argument of perigee: 320.8955°
revolutions per day: 14.65108136
mean anomaly at epoch: 38.2403°
orbit number at epoch: 57650

The dashed part of the orbit path shows where the satellite is in the earth's shadow,  

DLR